Location: Czu?�w
(50.1404°N, 18.9919°E)
Time: 03:24:01
(UTC+00:00)

FengYun 1-2 T - Pass Details

Date: 27 October 2020
Orbit: 846 x 882 km, 98.7° (Epoch: 27 November)

Event Time Altitude Azimuth Distance (km) Brightness Sun altitude
Rises 16:25:03 0° 166° (SSE) 3,470 7.3 -9.6°
Reaches altitude 10° 16:27:26 10° 167° (SSE) 2,534 6.6 -9.9°
Maximum altitude 16:33:05 81° 255° (WSW) 895 4.4 -10.8°
Drops below altitude 10° 16:38:46 10° 343° (NNW) 2,536 6.8 -11.7°
Sets 16:41:09 0° 345° (NNW) 3,474 7.5 -12.1°
